SCOUT B R/B, 2206

Orbit data source: Space-Track

SCOUT B R/B, 2206 is space debris in LEO originally from a launch on Fri, 10 Jun 1966 UTC launched from the Wallops Island (WLPIS). Debris objects in space refer to the collection of defunct objects orbiting the Earth. Examples of debris include non-operational satellites, rocket bodies, and fragments generated from explosions, collisions, or faulty payload assembly.

Loading next visibility...
Identifier
2206, 1966-052B
Orbit
LEO
Last TLE update
13 hours ago
Origin
Manufacturer
UTC
Mission
Spacecraft
Bus & Motor
FW4, Unknown motor
Mass
47 kg wet, 47 kg dry
Launch date (UTC)
1966-06-10 (59 years ago)
Launch vehicle
Unknown
Launch site
Wallops Island (WLPIS)
Object type
Payload
Rocket body
Debris
Shape & HBR
Cyl, 0.8 m
Radar Cross Section
0.687 m², Medium (>0.1 m² and < 1m²)

Expand to show TLE details & history

TLE from 13 hours ago
0 SCOUT B R/B
1 02206U 66052B   25200.85727696  .00000282  00000-0  47892-3 0  9993
2 02206  40.8542 144.3111 2209052  80.9284 303.2984 10.14358233169039
Epoch: 2025-07-19T20:34Z
TLE epoch observation values (Epoch: 2025-07-19T20:34:28.729Z)
Latitude
0.00004°
Longitude
-102.19693°
Altitude
1,905.363 km
Speed
7.214 km/s
True Right ascension
09h 37m 14s
True Declination
0° 00' 00"
Sunlit
Object was in daylight at epoch
Visualization orbit readout
Latitude
-31.11194°
Longitude
120.50396°
Altitude
4,216.747 km
Speed
5.574 km/s
Apparent Right ascension
02h 13m 05s
Apparent Declination
-60° 45' 26"
Sunlit
Object is in daylight
Visualization observer readout
Local Sidereal Time
22:32:51
Azimuth
154.742° SSE
Elevation
-20.2°
Doppler factor
1
Orbital elements
Apogee altitude
4,630.005 km
Perigee altitude
646.476 km
Semi-major axis
9,016.377 km
Eccentricity
0.22091
Inclination
40.8542°
RAAN
144.3111°
Arg. of periapsis
80.9284°
True anomaly
279.14092°
Mean anomaly
303.2984°
Eccentric anomaly
291.52412°
Mean motion
2.5351 °/min
Orbital period
142.01 mins
BSTAR
0.00047892
Loading maneuver chart data...
Loading SW <> Apogee altitude chart data...
Loading historical data...
Loading historical data...
Loading historical data...
Loading historical data...
Loading historical data...
Loading historical data...
Loading historical data...
Other satellites on launch #52 in the year 1966 (1966-06-10 UTC)
|